Voltar ao catálogo

QIANFAN-68

AtivoComunicaçõesPO
NORAD 62798·PAYLOAD·🇨🇳 China

Lançado Jan 23, 2025 de Taiyuan Satellite Launch Center

Loading…

Próximas Passagens (próximas 24 horas)

TLE

AtualizadoSource: Space-Track

Época: Sep 14, 2026, 22:27 UTC

1 62798U 25016P   26257.93593987  .00000040  00000-0  43429-4 0  9991
2 62798  88.9665  74.4162 0013205 265.2862  94.6781 13.51021694 84539

Acompanhe QIANFAN-68 em tempo real com AllMySat

Download on the App Store